Regional Weather Roundup
Issued by NWS

Home | Current Version | Previous Version | Text Only | Print | Product List | Glossary Off
Versions: 1 2 3 4 5 6 7 8 9 10 11 12 13 14 15 16 17 18 19 20 21 22 23 24 25 26 27 28 29 30 31 32 33 34 35 36 37 38 39 40 41 42 43 44 45 46 47 48 49 50

000
ASUS43 KTOP 191759
RWRKS

WEATHER ROUNDUP FOR KANSAS
NATIONAL WEATHER SERVICE GOODLAND KS
100 PM CDT WED JUL 19 2017

NOTE:  "FAIR" INDICATES FEW OR NO CLOUDS BELOW 12,000 FEET WITH NO
SIGNIFICANT WEATHER AND/OR OBSTRUCTIONS TO VISIBILITY.

KSZ001>006-013>018-027>032-041>047-191900-
NORTHWEST KANSAS

CITY           SKY/WX    TMP DP  RH WIND       PRES   REMARKS
GOODLAND       SUNNY     94  60  32 MISG      30.08F
6HR MIN TEMP:  72; 6HR MAX TEMP:  94;

HAYS           SUNNY     99  67  35 S17G23    30.02F HX 103
HILL CITY      SUNNY    101  62  27 S14       30.01F HX 102
6HR MIN TEMP:  74; 6HR MAX TEMP: 102;

RUSSELL        SUNNY     96  66  37 S13G23    30.01F HX  99
6HR MIN TEMP:  76; 6HR MAX TEMP:  96;

$$

KSZ061>065-074>080-084>089-191900-
SOUTHWEST KANSAS

CITY           SKY/WX    TMP DP  RH WIND       PRES   REMARKS
DODGE CITY     SUNNY     96  61  31 SW17      30.08F HX  96
6HR MIN TEMP:  73; 6HR MAX TEMP:  96;

ELKHART          N/A     94  53  25 SE8         N/A
GARDEN CITY    SUNNY     94  63  35 S13       30.09F HX  95
6HR MIN TEMP:  69; 6HR MAX TEMP:  94;

LIBERAL        SUNNY     96  59  29 S16       30.11F HX  95
$$

KSZ066>073-081>083-090>101-191900-
SOUTHEAST KANSAS

CITY           SKY/WX    TMP DP  RH WIND       PRES   REMARKS
CHANUTE        MOSUNNY   93  73  52 S12       30.11F HX 102
6HR MIN TEMP:  76; 6HR MAX TEMP:  94;

COFFEYVILLE    SUNNY     92  76  59 S8        30.11F HX 104
6HR MIN TEMP:  73; 6HR MAX TEMP:  93;

HUTCHINSON     SUNNY     98  66  34 S13G24    30.05F HX 101
6HR MIN TEMP:  77; 6HR MAX TEMP:  99;

MEDICINE LODGE   N/A     98  63  31 SW13G24   30.05F HX 100
NEWTON         SUNNY     97  70  41 S18G25    30.08F HX 103
PARSONS        SUNNY     92  75  57 S6        30.13F HX 103
6HR MIN TEMP:  74; 6HR MAX TEMP:  92;

WICHITA INTL   MOSUNNY   97  69  40 S16G23    30.06F HX 103
6HR MIN TEMP:  76; 6HR MAX TEMP:  97;

WICHITA JABRA  SUNNY     96  71  44 S15       30.08F HX 103
6HR MIN TEMP:  77; 6HR MAX TEMP:  96;

WINFIELD       SUNNY     96  72  45 S15       30.10F HX 104
6HR MIN TEMP:  77; 6HR MAX TEMP:  96;

$$

KSZ007>012-019>026-033>040-048>060-102>105-191900-
NORTHEAST KANSAS

CITY           SKY/WX    TMP DP  RH WIND       PRES   REMARKS
CONCORDIA      SUNNY     94  73  50 S17       30.02S HX 103
6HR MIN TEMP:  77; 6HR MAX TEMP:  94;

EMPORIA        SUNNY     94  74  52 S15       30.08F HX 104
6HR MIN TEMP:  74; 6HR MAX TEMP:  94;

LAWRENCE       MOSUNNY   89  77  67 SE14      30.06F HX 101
6HR MIN TEMP:  74; 6HR MAX TEMP:  89;

MANHATTAN      SUNNY    100  73  41 S15G22    30.02F HX 110
6HR MIN TEMP:  77; 6HR MAX TEMP: 100;

OLATHE IND     CLOUDY    87  76  69 SE9       30.09F HX  97
6HR MIN TEMP:  74; 6HR MAX TEMP:  87; 6HR PCP:  0.06;

OLATHE EXE     CLOUDY    82  76  81 S10       30.09F
6HR MIN TEMP:  74; 6HR MAX TEMP:  82; 6HR PCP:  0.01;

SALINA         SUNNY    100  69  36 S20       30.02F HX 106
6HR MIN TEMP:  79; 6HR MAX TEMP: 100; 6HR PCP: TRACE;

TOPEKA BILLARD CLOUDY    88  78  72 SE12      30.06F HX 101
6HR MIN TEMP:  77; 6HR MAX TEMP:  88;

TOPEKA FORBES  MOSUNNY   91  77  63 S13       30.06F HX 104
6HR MIN TEMP:  77; 6HR MAX TEMP:  92;

$$




USA.gov is the U.S. government's official web portal to all federal, state and local government web resources and services.